[[{"header":{"parameterUnit":"m.s-1","parameterCategory":1,"la1":30.2991,"la2":30.254,"lo1":-89.0895,"lo2":-89.0444,"dy":0.0017,"dx":0.0017,"nx":28,"ny":28,"refTime":"2024-06-29T09:00:00:Z","depth":0,"parameterNumber":2,"parameterNumberName":"U-component_of_WINDS"},"data":[0,0,0,0,0,0,0,0,0,0,0,0,0,0,0,0,0,0,0,0,0,0,0,0,0,0,0,0,0,0,0,0,0,0,0,0,0,0,0,0,0,0,0,0,0,0,0,0,0,0,0,0,0,0,0,0,0,0,-1.3885,-1.3885,0,-1.385,-1.385,-1.385,-1.3811,-1.3811,-1.381,-1.381,-1.3774,-1.3773,-1.3773,0,0,0,0,0,0,0,0,0,0,0,0,0,-1.3919,-1.3918,-1.3885,-1.3885,-1.3884,-1.385,-1.385,-1.3849,-1.3811,-1.3811,-1.381,-1.3809,-1.3774,-1.3773,-1.3773,0,0,0,0,0,0,0,0,0,0,0,0,0,-1.3896,-1.3918,-1.3885,-1.3861,-1.3859,-1.3851,-1.385,-1.3849,-1.3811,-1.3811,-1.381,-1.3809,-1.3774,-1.3773,-1.3773,-1.3785,0,0,-1.3771,-1.377,0,0,0,0,0,0,0,0,-1.3898,-1.3895,-1.3865,-1.3863,-1.386,-1.3834,-1.3849,-1.3828,-1.3812,-1.3829,-1.381,-1.3809,-1.3794,-1.3792,-1.3787,-1.3784,-1.3782,-1.3771,-1.377,-1.377,-1.377,0,0,0,0,0,0,0,-1.3899,-1.3896,-1.3871,-1.3865,-1.3862,-1.3852,-1.3848,-1.3845,-1.3817,-1.3828,-1.3825,-1.3821,-1.3793,-1.3788,-1.3786,-1.3782,-1.3771,-1.377,-1.377,-1.3769,-1.3787,-1.3787,0,0,0,0,0,0,-1.3904,-1.3898,-1.3872,-1.387,-1.3877,-1.3852,-1.3848,-1.3843,-1.3817,-1.3812,-1.3822,-1.382,-1.379,-1.3787,-1.3785,-1.3798,-1.377,-1.3769,-1.3769,-1.3786,-1.3787,-1.3788,0,0,0,0,0,0,-1.3905,-1.3902,-1.3874,-1.3883,-1.3879,-1.3853,-1.3848,-1.3843,-1.3838,-1.3813,-1.3808,-1.3822,-1.3789,-1.3786,-1.3785,-1.3796,-1.3769,-1.3768,-1.3785,-1.3786,-1.3787,-1.3824,0,0,0,0,0,0,-1.3906,-1.3903,-1.3907,-1.3884,-1.3879,-1.3875,-1.3849,-1.3843,-1.3837,-1.3834,-1.3811,-1.3807,-1.3788,-1.3787,-1.3785,-1.3794,-1.3768,-1.3784,-1.3785,-1.3787,-1.3821,-1.3826,-1.383,0,0,0,0,0,-1.3908,-1.3919,-1.3908,-1.3905,-1.3884,-1.3876,-1.3873,-1.3851,-1.3838,-1.3842,-1.3826,-1.3808,-1.3795,-1.3787,-1.3785,-1.3794,-1.3783,-1.3785,-1.3787,-1.3819,-1.3825,-1.383,0,0,0,0,0,0,-1.3944,-1.3915,-1.3903,-1.3907,-1.3894,-1.3869,-1.3874,-1.3858,-1.3848,-1.3845,-1.3819,-1.3814,-1.3817,-1.3806,-1.3797,-1.3805,-1.3786,-1.3788,-1.3812,-1.3817,-1.3822,-1.3824,-1.3767,0,0,0,0,0,-1.3953,-1.3949,-1.3924,-1.393,-1.3924,-1.3901,-1.3896,-1.3881,-1.3866,-1.3861,-1.3844,-1.3831,-1.3824,-1.382,-1.3813,-1.382,-1.3814,-1.3825,-1.383,-1.3833,-1.3835,-1.3838,-1.3842,-1.3794,-1.3794,-1.3794,0,0,-1.3971,-1.3954,-1.3953,-1.3937,-1.3925,-1.3922,-1.3896,-1.3894,-1.3891,-1.386,-1.3859,-1.3847,-1.383,-1.3834,-1.3835,-1.3825,-1.3847,-1.3836,-1.3839,-1.3838,-1.384,-1.3845,-1.3849,-1.3795,-1.3795,-1.3795,0,0,-1.4001,-1.3988,-1.3992,-1.3981,-1.3963,-1.3948,-1.3949,-1.3927,-1.3917,-1.3916,-1.3893,-1.3889,-1.3878,-1.3867,-1.386,-1.3887,-1.387,-1.3886,-1.3908,-1.3911,-1.3915,-1.3918,-1.3927,-1.3931,-1.3887,-1.3888,-1.3888,0,-1.4025,-1.4019,-1.3996,-1.3994,-1.3988,-1.3961,-1.3964,-1.3954,-1.3936,-1.3932,-1.3921,-1.3907,-1.3894,-1.3894,-1.3901,-1.3896,-1.3897,-1.3888,-1.3916,-1.3919,-1.3922,-1.393,-1.3934,-1.3889,-1.3889,-1.3889,-1.3889,0,-1.4049,-1.4045,-1.405,-1.4032,-1.4027,-1.4028,-1.4005,-1.4002,-1.3987,-1.3973,-1.3971,-1.3955,-1.3944,-1.3943,-1.3928,-1.3941,-1.3936,-1.3921,-1.3901,-1.3929,-1.3936,-1.3939,-1.3892,-1.3892,-1.3891,-1.3891,0,0,-1.41,-1.4071,-1.4073,-1.4064,-1.4044,-1.404,-1.4041,-1.403,-1.4027,-1.4016,-1.4015,-1.4007,-1.3993,-1.3985,-1.3969,-1.3972,-1.3994,-1.3957,-1.3956,-1.3964,-1.4007,-1.4018,-1.4022,-1.3983,-1.3984,-1.3984,-1.4009,0,-1.4126,-1.4124,-1.4104,-1.4108,-1.4104,-1.4079,-1.4079,-1.4066,-1.4053,-1.4048,-1.4033,-1.4027,-1.401,-1.4005,-1.4007,-1.3991,-1.4002,-1.3989,-1.3982,-1.3982,-1.3986,-1.4026,-1.4038,-1.4062,-1.4011,-1.4012,-1.4012,0,-1.4156,-1.4146,-1.415,-1.4129,-1.4127,-1.4128,-1.4116,-1.4111,-1.4097,-1.4087,-1.4079,-1.4061,-1.406,-1.4042,-1.404,-1.4031,-1.4027,-1.4019,-1.402,-1.4017,-1.3998,-1.4025,-1.4069,-1.4072,-1.4017,-1.4016,-1.4016,0,-1.4193,-1.4181,-1.4181,-1.4175,-1.4151,-1.4152,-1.4142,-1.4127,-1.4121,-1.4111,-1.4108,-1.4098,-1.4092,-1.4085,-1.4065,-1.4054,-1.4065,-1.4046,-1.4057,-1.4057,-1.4059,-1.4059,-1.4103,-1.4058,-1.4058,-1.4058,-1.4058,0,-1.4224,-1.4227,-1.4197,-1.4197,-1.42,-1.4177,-1.4181,-1.4168,-1.4155,-1.4153,-1.413,-1.4129,-1.4103,-1.4098,-1.4082,-1.4083,-1.4081,-1.4072,-1.4068,-1.4074,-1.4075,-1.407,-1.4068,-1.4059,-1.4059,-1.4058,-1.4058,0,-1.4265,-1.4245,-1.4244,-1.4222,-1.4216,-1.4219,-1.42,-1.4199,-1.4185,-1.4182,-1.418,-1.4158,-1.4151,-1.413,-1.4119,-1.4108,-1.4113,-1.4105,-1.4118,-1.4115,-1.4127,-1.4126,-1.4168,-1.4172,-1.4126,-1.4126,-1.4127,0,-1.4285,-1.4287,-1.4265,-1.4262,-1.4253,-1.4248,-1.4243,-1.422,-1.4215,-1.4199,-1.4201,-1.4192,-1.4184,-1.4175,-1.4157,-1.4148,-1.414,-1.4155,-1.4138,-1.4144,-1.4139,-1.4139,-1.4139,-1.4159,-1.4159,-1.416,-1.416,0,-1.4324,-1.4314,-1.4307,-1.4297,-1.4291,-1.4282,-1.4271,-1.427,-1.4245,-1.4241,-1.4234,-1.4228,-1.4216,-1.4208,-1.4196,-1.4186,-1.4169,-1.4166,-1.4168,-1.4173,-1.418,-1.4176,-1.4127,-1.4165,-1.4164,-1.4164,-1.4164,-1.4164,-1.4355,-1.4356,-1.434,-1.4333,-1.4323,-1.4314,-1.4312,-1.4297,-1.4291,-1.428,-1.4267,-1.4261,-1.4247,-1.4229,-1.422,-1.4216,-1.4207,-1.4209,-1.421,-1.4211,-1.4214,-1.4182,-1.4214,-1.4213,-1.4213,-1.4213,-1.4213,0,-1.4393,-1.4381,-1.4375,-1.4361,-1.4356,-1.4341,-1.4328,-1.4325,-1.432,-1.4308,-1.4301,-1.4293,-1.4285,-1.4267,-1.4257,-1.4257,-1.4249,-1.4255,-1.4255,-1.4252,-1.4222,-1.4222,-1.4262,-1.4262,-1.4262,-1.4262,-1.4262,-1.4262,-1.4411,-1.4411,-1.44,-1.4394,-1.4383,-1.4377,-1.4371,-1.4363,-1.4353,-1.4345,-1.4338,-1.4327,-1.4312,-1.4302,-1.4294,-1.4289,-1.4286,-1.4295,-1.4287,-1.4259,-1.4255,-1.425,-1.4249,-1.4294,-1.4295,-1.4317,-1.4318,-1.4318]},{"header":{"parameterUnit":"m.s-1","parameterCategory":1,"la1":30.2991,"la2":30.254,"lo1":-89.0895,"lo2":-89.0444,"dy":0.0017,"dx":0.0017,"nx":28,"ny":28,"refTime":"2024-06-29T09:00:00:Z","depth":0,"parameterNumber":3,"parameterNumberName":"V-component_of_WINDS"},"data":[0,0,0,0,0,0,0,0,0,0,0,0,0,0,0,0,0,0,0,0,0,0,0,0,0,0,0,0,0,0,0,0,0,0,0,0,0,0,0,0,0,0,0,0,0,0,0,0,0,0,0,0,0,0,0,0,0,0,4.7748,4.7748,0,4.7766,4.7766,4.7766,4.7735,4.7734,4.7733,4.7732,4.7748,4.7749,4.775,0,0,0,0,0,0,0,0,0,0,0,0,0,4.7686,4.7688,4.7748,4.7748,4.7749,4.7766,4.7766,4.7766,4.7735,4.7734,4.7733,4.7732,4.7747,4.7749,4.775,0,0,0,0,0,0,0,0,0,0,0,0,0,4.771,4.7688,4.7748,4.7735,4.7734,4.7766,4.7766,4.7766,4.7736,4.7734,4.7733,4.7731,4.7747,4.7749,4.7751,4.7794,0,0,4.7757,4.7758,0,0,0,0,0,0,0,0,4.7708,4.7712,4.7737,4.7736,4.7735,4.7747,4.775,4.7776,4.7736,4.7735,4.7732,4.773,4.7748,4.775,4.7757,4.7795,4.7796,4.7757,4.7758,4.7759,4.776,0,0,0,0,0,0,0,4.7707,4.7711,4.7755,4.7737,4.7736,4.7728,4.773,4.7755,4.775,4.7735,4.7733,4.7736,4.7748,4.7755,4.7757,4.7796,4.7757,4.7759,4.776,4.7761,4.7874,4.7875,0,0,0,0,0,0,4.7707,4.771,4.7755,4.7756,4.7718,4.7731,4.7732,4.7745,4.775,4.7749,4.7737,4.7734,4.7752,4.7755,4.7757,4.7811,4.7759,4.7761,4.7762,4.7872,4.7874,4.7876,0,0,0,0,0,0,4.7706,4.7711,4.7754,4.7732,4.7737,4.7733,4.7747,4.7746,4.7753,4.7751,4.775,4.7745,4.7751,4.7755,4.7786,4.7811,4.7762,4.7764,4.787,4.7872,4.7875,4.7917,0,0,0,0,0,0,4.7704,4.7711,4.7728,4.7733,4.7738,4.7783,4.7749,4.7747,4.7757,4.7754,4.7759,4.7758,4.775,4.7783,4.7788,4.7813,4.7766,4.7868,4.7871,4.7874,4.7913,4.7921,4.7927,0,0,0,0,0,4.7702,4.7738,4.7729,4.7734,4.7759,4.7784,4.7787,4.7778,4.7759,4.7776,4.7775,4.7758,4.7807,4.7787,4.7792,4.7818,4.7866,4.787,4.7874,4.791,4.7919,4.7927,0,0,0,0,0,0,4.7734,4.7738,4.7728,4.7767,4.7776,4.7779,4.78,4.7787,4.7801,4.7797,4.7784,4.7786,4.782,4.7822,4.7799,4.7861,4.7833,4.7839,4.7859,4.7868,4.7874,4.7874,4.7767,0,0,0,0,0,4.7746,4.7766,4.7768,4.7802,4.7807,4.7803,4.7813,4.7806,4.7814,4.7817,4.7819,4.7827,4.7844,4.7856,4.7872,4.7913,4.7915,4.7933,4.794,4.7946,4.7951,4.7975,4.7984,4.7889,4.7889,4.7889,0,0,4.7769,4.7774,4.7788,4.7809,4.7815,4.7837,4.7806,4.783,4.7846,4.7821,4.7851,4.7853,4.7861,4.7899,4.7915,4.7901,4.7977,4.7951,4.7955,4.7957,4.798,4.7989,4.7997,4.7891,4.7891,4.7891,0,0,4.7825,4.783,4.786,4.7867,4.7878,4.7875,4.7882,4.7888,4.7889,4.792,4.7902,4.792,4.795,4.7957,4.7965,4.8026,4.8011,4.8031,4.8067,4.809,4.8098,4.8104,4.8127,4.8136,4.8036,4.8036,4.8036,0,4.7853,4.7886,4.7876,4.7902,4.7913,4.7893,4.7923,4.793,4.7944,4.7952,4.7936,4.7975,4.7979,4.8019,4.8034,4.804,4.8049,4.803,4.8098,4.8104,4.811,4.8132,4.814,4.8038,4.8038,4.8038,4.8037,0,4.7921,4.7944,4.7966,4.7983,4.7996,4.8024,4.8019,4.8033,4.8025,4.8024,4.8056,4.8061,4.8078,4.8087,4.8078,4.8126,4.8117,4.81,4.8071,4.8122,4.8142,4.815,4.8042,4.8041,4.804,4.804,0,0,4.7995,4.8008,4.8017,4.8025,4.8036,4.8054,4.8081,4.81,4.8113,4.8123,4.8147,4.8173,4.8158,4.8167,4.8159,4.818,4.8229,4.816,4.816,4.8174,4.8284,4.8298,4.8308,4.822,4.8221,4.8222,4.8284,0,4.8051,4.81,4.8094,4.814,4.8163,4.8145,4.8169,4.8178,4.8179,4.8197,4.8196,4.8217,4.8194,4.82,4.8219,4.8219,4.8252,4.8215,4.8241,4.8243,4.8241,4.8319,4.8333,4.8391,4.8292,4.8293,4.8294,0,4.8123,4.8139,4.8189,4.8199,4.8208,4.8229,4.8247,4.8265,4.8275,4.8274,4.8285,4.8274,4.8302,4.8273,4.8312,4.8287,4.8297,4.8299,4.8301,4.8304,4.8272,4.8325,4.8409,4.8419,4.8306,4.8305,4.8305,0,4.8174,4.8208,4.8243,4.825,4.8262,4.8278,4.8284,4.8293,4.8305,4.832,4.8328,4.8346,4.8356,4.8369,4.8364,4.8343,4.8404,4.8374,4.8404,4.8404,4.8418,4.8417,4.8507,4.8423,4.8423,4.8423,4.8423,0,4.8238,4.827,4.8267,4.8288,4.8323,4.8316,4.835,4.8353,4.8362,4.8384,4.8369,4.8389,4.838,4.84,4.8395,4.8429,4.8433,4.8433,4.8431,4.8435,4.8435,4.8442,4.8438,4.8425,4.8425,4.8424,4.8424,0,4.8302,4.8301,4.8338,4.8347,4.835,4.8376,4.8383,4.8404,4.8403,4.8431,4.8437,4.8437,4.8459,4.8455,4.8479,4.8477,4.8519,4.8512,4.8516,4.8515,4.8546,4.8544,4.8644,4.8657,4.8564,4.8565,4.8565,0,4.8343,4.8367,4.838,4.8395,4.8402,4.8425,4.8438,4.8432,4.8446,4.8461,4.848,4.8502,4.8519,4.8557,4.8558,4.8577,4.8571,4.8605,4.8574,4.8577,4.8573,4.8573,4.8576,4.8611,4.8612,4.8613,4.8614,0,4.8417,4.8416,4.8437,4.8458,4.8475,4.849,4.8504,4.8517,4.8512,4.8529,4.8553,4.8567,4.8593,4.8615,4.8634,4.8639,4.8626,4.8624,4.8632,4.8636,4.8638,4.8639,4.8534,4.8621,4.8621,4.862,4.862,4.8619,4.8472,4.8493,4.8507,4.8531,4.8541,4.8555,4.8576,4.8579,4.86,4.8622,4.8617,4.8645,4.8656,4.8679,4.8687,4.8708,4.8696,4.8707,4.871,4.8713,4.8718,4.8634,4.8711,4.8711,4.8711,4.8711,4.871,0,4.8546,4.8555,4.8577,4.8599,4.8618,4.8605,4.8621,4.8638,4.8663,4.8675,4.8693,4.8722,4.8744,4.8748,4.8769,4.8786,4.8781,4.8791,4.8791,4.8792,4.8727,4.8719,4.8796,4.8796,4.8796,4.8796,4.8795,4.8795,4.8588,4.8625,4.8626,4.8668,4.8675,4.8704,4.8714,4.8728,4.8738,4.8771,4.879,4.8793,4.8803,4.8824,4.8844,4.8845,4.8854,4.8868,4.8866,4.8805,4.8797,4.8789,4.8781,4.8869,4.8869,4.8929,4.893,4.893]}]]